Wind_Speed
10 10 9 9 8 8 7 7 7 7 6 6 5 5 5 4 4 4 4 4 3 4 4 4 3 3 3 4 4 3 3 3 3 3 3 3 3 4 4 4 4 4 4
12 11 10 10 10 9 9 9 8 8 8 7 6 6 6 5 5 5 5 5 5 5 5 5 5 5 5 5 5 5 5 5 5 5 5 5 5 5 6 6 6 6 6
13 13 12 11 11 11 10 10 10 9 9 9 8 8 7 7 7 7 6 6 7 7 7 7 7 7 7 7 7 7 7 7 7 6 6 7 7 7 7 7 7 7 7
14 14 13 13 12 12 12 12 11 11 10 10 10 10 9 9 9 8 8 8 8 8 8 8 8 8 8 8 8 8 8 8 8 8 8 8 8 8 8 9 9 9 9
16 15 15 15 14 13 13 13 13 13 12 12 12 11 11 11 10 10 10 9 9 10 10 9 9 9 10 10 9 9 9 10 10 10 10 10 10 10 10 10 11 11 11
17 17 17 16 15 15 15 15 15 14 14 13 13 13 12 12 12 12 11 11 11 11 11 11 11 11 11 11 11 11 11 11 11 11 11 11 12 12 12 12 13 13 13
19 18 17 17 16 16 16 16 16 15 15 15 14 14 14 14 14 14 13 13 13 13 13 13 13 13 13 13 13 13 13 13 13 13 13 13 13 13 13 14 14 14 14
20 19 18 18 18 18 17 17 17 17 17 16 16 16 16 16 16 16 16 15 15 15 15 15 15 15 15 15 15 15 15 15 15 15 15 15 15 15 15 15 15 15 15
22 21 20 20 19 19 18 18 18 18 18 18 18 18 17 17 18 18 18 17 17 17 17 17 17 17 17 17 17 17 17 17 17 17 17 17 17 17 17 17 17 17 17
24 22 22 21 20 20 20 20 19 19 19 19 20 19 19 19 19 19 19 19 19 19 19 19 19 19 19 19 19 19 19 19 19 20 20 20 19 19 19 19 19 19 19
25 25 24 22 22 22 22 21 21 21 21 21 21 21 21 21 21 21 21 21 21 21 20 20 21 21 22 22 21 21 21 21 21 22 22 22 22 22 21 21 21 21 21
27 26 26 25 24 24 23 23 23 23 23 23 23 23 23 22 22 22 23 23 23 23 23 22 23 23 23 24 24 23 23 24 24 24 24 24 24 24 24 24 24 24 24
29 28 28 27 27 26 25 25 25 25 25 25 25 25 25 24 24 24 24 24 25 25 25 25 25 25 25 25 25 26 26 26 27 27 26 26 26 26 26 26 26 26 26
30 30 29 29 28 28 28 27 27 27 27 26 26 26 26 26 26 26 26 26 26 28 28 28 28 28 28 28 28 27 28 28 29 29 29 28 28 28 28 28 28 29 29
32 31 30 30 30 29 29 29 29 29 29 28 28 28 28 29 29 29 29 29 29 29 30 30 30 30 31 31 31 30 30 30 31 31 31 31 31 30 31 31 32 32 32
32 32 31 31 31 31 30 30 30 30 30 30 30 30 30 31 31 30 31 31 31 31 31 32 32 32 33 33 33 33 33 33 33 33 33 33 33 33 33 33 33 34 34
33 33 32 32 32 32 32 31 30 30 30 31 31 32 31 32 32 33 33 33 33 33 33 34 34 34 34 34 35 35 35 35 35 35 35 35 35 35 35 35 36 36 36
35 34 34 33 33 33 33 32 32 31 31 31 32 33 34 34 34 35 35 34 34 35 35 35 35 36 36 36 36 36 37 37 37 37 37 37 36 37 37 37 38 38 38
37 36 36 35 34 34 34 33 33 33 33 33 33 34 34 35 36 36 37 37 37 37 37 37 37 37 37 38 38 38 38 38 39 39 39 39 39 39 39 40 39 39 39
38 37 37 36 35 35 36 36 35 35 35 35 34 35 36 36 36 37 38 39 39 38 39 38 38 39 39 39 40 40 40 41 41 42 42 42 42 41 41 41 41 41 40
38 38 38 38 38 38 38 38 38 37 37 37 37 37 37 37 37 38 38 38 39 39 39 40 40 40 41 41 41 41 42 42 42 43 43 43 43 43 42 42 42 42 42
39 39 39 40 40 40 40 40 40 39 39 39 38 38 38 38 38 39 39 39 39 40 39 40 41 41 42 42 43 43 43 43 43 44 44 44 44 44 44 43 43 43 43
39 39 39 39 40 40 40 40 40 40 41 40 40 40 40 40 40 40 41 41 41 42 42 41 42 42 43 44 45 45 45 45 45 45 46 46 47 46 46 45 44 44 45
40 40 39 40 40 40 41 41 41 41 41 42 42 42 42 42 42 42 42 43 43 43 44 44 44 44 45 46 46 47 48 48 47 47 47 48 48 47 47 47 46 46 46
41 41 41 41 41 40 41 41 41 42 42 43 44 45 44 43 44 44 44 44 44 44 45 46 46 47 48 48 48 48 49 48 48 48 48 48 48 48 48 47 47 48 47
42 42 42 42 42 42 41 42 42 42 43 43 44 45 46 45 44 45 45 45 45 45 46 46 47 49 49 49 49 49 49 48 48 49 49 49 49 49 49 49 49 49 49
Wind_Direction
242 243 241 238 236 233 231 228 224 217 216 217 213 213 217 224 231 236 238 246 255 256 254 253 260 263 266 261 260 258 261 271 275 277 281 288 292 297 302 306 311 309 312
246 244 242 240 240 239 236 233 230 227 224 226 226 227 228 233 236 241 246 254 260 262 259 255 258 264 266 267 265 262 266 269 270 273 278 283 285 287 287 291 294 296 299
246 245 245 245 242 240 237 234 232 232 231 232 235 238 238 240 242 246 252 254 256 258 259 260 263 268 271 271 271 268 268 271 268 271 273 275 279 281 282 285 287 290 292
247 247 248 248 245 242 238 236 236 236 237 239 241 243 245 246 247 247 253 256 257 260 264 266 266 270 274 274 279 274 271 270 270 270 271 273 275 279 281 282 284 287 290
247 248 249 248 246 246 244 240 240 241 243 245 246 246 247 248 249 249 253 255 259 262 265 268 269 271 276 278 277 275 275 272 270 270 271 273 274 277 280 281 283 285 286
246 248 250 248 245 247 248 244 242 243 247 249 250 250 249 250 250 251 254 256 258 262 264 267 270 273 276 275 273 273 273 273 274 273 273 274 275 276 278 281 283 285 285
246 248 249 247 246 247 247 245 244 244 247 249 252 253 253 253 253 253 255 257 258 261 263 266 269 273 275 275 274 274 273 272 272 274 275 276 277 278 278 279 281 282 282
247 247 247 248 247 246 246 245 245 246 247 249 251 253 253 254 256 256 257 257 259 261 263 265 267 272 275 275 274 273 273 273 272 272 275 277 279 279 279 279 279 279 280
247 247 247 246 247 248 247 246 246 249 250 252 252 253 255 256 257 258 259 260 260 262 265 266 268 270 272 272 272 273 274 274 273 272 274 275 278 279 279 278 279 278 279
247 248 247 245 246 248 248 248 250 251 253 255 255 255 256 257 257 258 260 261 262 263 265 267 270 271 271 270 271 272 273 274 273 272 274 275 276 277 278 277 278 279 279
248 248 247 247 248 249 250 249 250 252 254 256 257 257 258 259 259 259 260 262 263 265 267 268 270 271 271 271 271 271 272 274 276 275 275 275 275 276 277 277 278 278 279
247 247 247 248 250 250 251 250 251 253 255 256 257 258 259 260 261 261 261 263 264 266 268 270 270 271 271 272 272 272 272 273 275 277 276 275 275 276 276 276 277 278 278
246 247 248 249 250 251 252 252 252 254 256 258 257 258 260 260 261 262 263 265 265 266 268 270 271 271 272 273 273 273 273 274 276 276 277 277 275 275 276 275 276 277 277
246 247 248 249 250 251 252 254 255 255 257 259 260 260 260 262 263 264 265 265 267 267 269 270 271 270 271 272 273 274 274 275 276 276 277 278 278 276 276 276 276 276 277
247 247 248 250 251 252 253 255 256 257 257 259 261 262 263 263 265 266 266 266 267 268 269 270 271 271 271 271 272 273 274 275 276 276 277 278 278 278 278 277 277 276 276
246 247 248 250 251 252 254 255 256 257 258 259 261 263 264 264 265 266 267 266 267 269 270 270 271 272 272 272 272 272 273 274 276 277 277 277 277 278 278 278 278 278 277
245 246 247 249 251 252 254 255 256 258 259 261 261 262 264 265 265 266 267 268 269 270 270 271 271 271 271 272 272 272 273 273 275 276 276 276 277 277 278 278 279 279 279
245 246 248 249 250 251 253 254 256 258 260 262 263 263 264 265 266 267 267 269 270 270 270 270 271 271 271 271 272 272 272 273 274 275 276 277 276 277 277 278 279 279 279
246 246 248 250 251 251 253 254 256 259 261 263 264 265 265 266 267 268 268 269 269 270 271 271 271 271 271 271 272 273 273 274 274 275 276 276 277 278 278 278 278 278 278
246 246 247 250 251 252 253 255 258 260 262 264 265 265 266 267 267 268 270 270 270 271 271 271 271 271 271 272 272 273 273 275 275 275 276 276 277 277 277 278 278 277 276
246 247 248 249 251 253 254 256 258 261 263 264 264 265 266 267 268 269 270 271 271 272 272 272 272 271 272 272 272 273 273 274 275 275 275 275 276 277 277 277 277 276 275
247 248 249 250 252 254 255 256 258 261 263 264 265 266 267 267 269 270 271 272 272 271 272 272 272 272 273 273 273 274 274 274 275 275 275 276 276 276 276 276 275 274 274
248 248 249 250 252 254 256 257 258 260 262 264 265 267 268 268 269 270 271 272 272 272 273 273 273 273 274 274 274 274 274 275 274 274 275 275 276 274 274 274 274 274 274
248 248 250 252 254 255 256 257 259 261 262 263 265 266 268 269 270 270 271 272 273 273 273 273 274 274 275 275 275 275 275 275 275 274 275 275 275 273 273 273 273 273 273
248 248 250 253 255 256 258 259 261 263 264 265 266 266 267 269 269 270 271 271 272 273 273 273 274 275 275 276 276 275 275 275 274 275 275 275 274 273 273 273 273 273 273
249 250 252 254 255 257 258 260 262 263 265 266 267 267 267 268 269 270 270 271 271 272 272 273 274 275 275 276 276 275 275 275 275 275 275 274 274 273 273 273 273 273 273
Height
5845 5846 5847 5848 5849 5850 5850 5851 5852 5853 5854 5855 5856 5857 5858 5858 5859 5860 5860 5861 5862 5862 5862 5863 5863 5863 5864 5864 5865 5865 5865 5865 5866 5866 5866 5867 5867 5867 5867 5867 5867 5867 5867
5843 5844 5845 5846 5848 5848 5849 5850 5851 5852 5853 5854 5855 5856 5857 5858 5858 5859 5860 5860 5861 5861 5862 5862 5863 5863 5863 5864 5864 5864 5864 5865 5865 5865 5866 5866 5866 5866 5866 5866 5866 5866 5866
5841 5842 5843 5845 5846 5847 5848 5849 5850 5851 5852 5853 5854 5855 5856 5856 5857 5858 5859 5859 5860 5860 5861 5861 5862 5862 5862 5863 5863 5863 5863 5864 5864 5864 5865 5865 5865 5865 5865 5865 5865 5865 5865
5839 5840 5841 5843 5844 5845 5846 5847 5848 5849 5850 5851 5852 5853 5854 5855 5856 5856 5857 5858 5858 5859 5860 5860 5860 5861 5861 5861 5862 5862 5862 5862 5863 5863 5863 5863 5863 5863 5863 5863 5863 5863 5863
5836 5838 5839 5840 5841 5843 5844 5845 5846 5847 5848 5849 5850 5851 5852 5853 5854 5855 5856 5856 5857 5857 5858 5858 5859 5859 5859 5860 5860 5860 5861 5861 5861 5861 5861 5861 5861 5861 5861 5861 5861 5861 5861
5833 5835 5836 5837 5839 5840 5841 5842 5843 5845 5846 5847 5848 5849 5850 5851 5852 5853 5853 5854 5855 5855 5856 5856 5857 5857 5857 5858 5858 5859 5859 5859 5859 5859 5859 5859 5859 5859 5859 5859 5859 5859 5859
5830 5831 5833 5834 5835 5837 5838 5839 5841 5842 5843 5844 5845 5846 5847 5848 5849 5850 5851 5852 5852 5853 5853 5854 5855 5855 5855 5856 5856 5856 5856 5856 5857 5857 5857 5857 5857 5857 5856 5856 5856 5856 5856
5827 5828 5830 5831 5832 5834 5835 5836 5837 5839 5840 5841 5842 5843 5844 5845 5846 5847 5848 5849 5849 5850 5850 5851 5852 5852 5852 5853 5853 5853 5853 5853 5854 5854 5854 5854 5854 5854 5853 5853 5853 5853 5853
5823 5824 5826 5827 5829 5830 5831 5833 5834 5835 5837 5838 5839 5840 5841 5841 5842 5843 5844 5845 5846 5847 5847 5848 5848 5849 5849 5849 5849 5850 5850 5850 5850 5850 5850 5850 5850 5850 5850 5850 5850 5849 5849
5818 5820 5822 5823 5825 5826 5828 5829 5830 5831 5832 5834 5835 5836 5837 5838 5838 5839 5840 5841 5842 5843 5843 5844 5844 5845 5845 5845 5845 5846 5846 5846 5846 5846 5846 5846 5846 5846 5846 5846 5845 5845 5845
5814 5816 5817 5819 5820 5822 5823 5825 5826 5827 5828 5829 5830 5832 5833 5833 5834 5835 5836 5837 5838 5838 5839 5839 5840 5840 5840 5840 5841 5841 5841 5841 5841 5841 5841 5842 5842 5842 5842 5841 5841 5841 5840
5808 5810 5812 5814 5816 5817 5819 5820 5821 5822 5824 5825 5826 5827 5828 5829 5829 5830 5831 5832 5833 5833 5834 5834 5835 5835 5835 5836 5836 5836 5836 5836 5836 5836 5836 5836 5836 5836 5836 5836 5836 5836 5835
5802 5805 5807 5809 5811 5812 5814 5815 5816 5817 5818 5819 5821 5822 5823 5823 5824 5825 5826 5827 5827 5828 5829 5829 5829 5830 5830 5830 5830 5830 5831 5831 5831 5831 5831 5830 5831 5831 5831 5830 5830 5830 5830
5796 5798 5801 5803 5805 5806 5808 5809 5811 5812 5813 5814 5815 5816 5817 5818 5819 5820 5821 5821 5822 5822 5823 5823 5824 5824 5824 5824 5825 5825 5824 5824 5825 5825 5825 5824 5824 5824 5824 5824 5824 5823 5823
5790 5792 5794 5796 5798 5800 5802 5803 5804 5806 5807 5808 5809 5810 5811 5812 5813 5814 5814 5815 5816 5816 5817 5817 5817 5818 5818 5818 5818 5818 5818 5818 5818 5818 5818 5818 5818 5817 5817 5817 5816 5816 5816
5783 5786 5788 5790 5792 5794 5795 5796 5798 5799 5800 5801 5802 5803 5804 5805 5806 5807 5808 5808 5809 5809 5810 5810 5810 5811 5811 5811 5811 5811 5811 5811 5811 5811 5811 5811 5810 5810 5810 5809 5809 5808 5808
5776 5779 5781 5783 5785 5787 5788 5790 5791 5792 5794 5795 5796 5797 5797 5798 5799 5800 5800 5801 5801 5802 5802 5802 5803 5803 5803 5803 5804 5804 5804 5803 5803 5803 5803 5803 5802 5802 5801 5801 5800 5799 5799
5769 5771 5774 5776 5778 5780 5781 5782 5784 5785 5786 5788 5789 5789 5790 5791 5791 5792 5792 5793 5793 5793 5794 5794 5795 5795 5795 5795 5795 5795 5795 5795 5795 5795 5794 5794 5793 5793 5792 5791 5791 5790 5789
5761 5764 5766 5768 5770 5772 5773 5775 5776 5777 5779 5780 5781 5781 5782 5783 5783 5784 5784 5784 5784 5785 5785 5786 5786 5786 5786 5786 5786 5787 5786 5786 5786 5786 5785 5784 5784 5783 5782 5782 5781 5780 5779
5753 5756 5758 5760 5762 5764 5765 5767 5768 5769 5770 5771 5772 5773 5773 5774 5775 5775 5775 5775 5775 5776 5776 5776 5776 5777 5777 5777 5777 5777 5777 5776 5776 5776 5775 5774 5774 5773 5772 5771 5770 5769 5769
5745 5747 5749 5751 5753 5755 5757 5759 5760 5761 5762 5763 5763 5763 5764 5765 5765 5766 5766 5766 5766 5766 5766 5767 5767 5767 5767 5767 5767 5767 5767 5766 5765 5765 5764 5764 5763 5762 5761 5760 5759 5758 5758
5736 5738 5740 5742 5744 5746 5748 5750 5751 5752 5753 5753 5754 5754 5755 5756 5756 5756 5757 5757 5757 5757 5757 5757 5756 5756 5756 5756 5756 5756 5756 5757 5755 5754 5753 5752 5752 5750 5749 5749 5748 5747 5747
5727 5729 5731 5734 5735 5737 5738 5740 5741 5742 5743 5744 5744 5745 5746 5746 5746 5746 5746 5746 5746 5746 5746 5746 5746 5746 5746 5745 5744 5744 5744 5744 5743 5743 5742 5741 5739 5738 5738 5737 5736 5736 5736
5718 5720 5722 5724 5726 5727 5729 5730 5731 5733 5733 5734 5735 5735 5736 5736 5736 5736 5736 5736 5736 5736 5735 5735 5735 5735 5734 5733 5733 5732 5731 5730 5730 5730 5730 5728 5727 5726 5726 5725 5725 5724 5724
5708 5711 5713 5714 5716 5718 5719 5720 5721 5723 5723 5724 5724 5725 5725 5725 5725 5725 5724 5724 5725 5724 5724 5724 5723 5723 5722 5721 5721 5719 5719 5718 5717 5717 5717 5716 5715 5714 5713 5713 5712 5712 5712
5699 5701 5703 5704 5706 5707 5709 5710 5711 5712 5713 5713 5713 5713 5714 5714 5713 5713 5713 5713 5713 5713 5712 5712 5711 5710 5710 5709 5708 5707 5706 5705 5704 5703 5703 5703 5702 5701 5700 5700 5700 5699 5699